DW6276 Weather Reports


time (UTC)temp
F
wind
direction
speed
knots
gust
knots
rain 1hr
in
rain 24hr
in
rain mn
in
humidity
%
barometer
mb
20230128001516 14 0.0 1.7 0.00 0.00 0.00 80 1013.7
20230128000516 14 0.0 1.7 0.00 0.00 0.00 80 1013.6
20230127235518 15 0.0 0.9 0.00 0.00 0.00 79 1013.3
20230127234536 15 0.0 0.9 0.00 0.00 0.00 79 1013.0
20230127233516 15 0.0 1.7 0.00 0.00 0.00 79 1012.6
20230127232518 16 0.0 1.7 0.00 0.00 0.00 78 1012.3
20230127231516 16 0.0 2.6 0.00 0.00 0.00 78 1011.9
20230127230516 17 0.0 1.7 0.00 0.00 0.00 77 1011.7
20230127225519 17 0.0 3.5 0.00 0.00 0.00 77 1011.4
20230127224516 17 248 0.9 3.5 0.00 0.00 0.00 77 1011.1
20230127223536 18 0.0 1.7 0.00 0.00 0.00 76 1010.9
20230127222536 18 248 0.9 3.5 0.00 0.00 0.00 76 1010.7
20230127220517 19 0.0 2.6 0.00 0.00 0.00 74 1010.4
20230127215536 20 0.0 1.7 0.00 0.00 0.00 74 1010.2
20230127214519 20 0.0 0.9 0.00 0.00 0.00 75 1009.9
20230127213536 20 0.0 5.2 0.00 0.00 0.00 74 1009.8
20230127212519 21 0.0 2.6 0.00 0.00 0.00 74 1009.5
20230127211536 21 0.0 1.7 0.00 0.00 0.00 75 1009.4
20230127210516 21 0 0.9 5.2 0.00 0.00 0.00 75 1009.1
20230127205517 21 0 0.9 9.6 0.00 0.00 0.00 75 1008.9
20230127204516 21 248 0.9 3.5 0.00 0.00 0.00 76 1008.6
20230127203601 21 0.0 2.6 0.00 0.00 0.00 76 1008.3
20230127202516 22 338 0.9 5.2 0.00 0.00 0.00 75 1008.2
20230127201516 22 270 0.9 3.5 0.00 0.00 0.00 75 1007.9
20230127200616 22 315 1.7 6.1 0.00 0.00 0.00 75 1007.8
20230127195517 23 248 1.7 9.6 0.00 0.00 0.00 76 1007.7
20230127194517 22 248 0.9 3.5 0.00 0.00 0.00 77 1007.6
20230127193537 22 248 0.9 3.5 0.00 0.00 0.00 77 1007.5
20230127192517 23 248 0.9 3.5 0.00 0.00 0.00 78 1007.7
20230127191516 22 315 0.9 3.5 0.00 0.00 0.00 79 1007.3
20230127190516 22 315 0.9 6.1 0.00 0.00 0.00 79 1007.0
20230127185516 22 248 0.9 4.3 0.00 0.00 0.00 79 1007.1
20230127184516 22 0.0 7.8 0.00 0.00 0.00 79 1007.0
20230127183559 23 0.0 1.7 0.00 0.00 0.00 79 1006.9
20230127182537 23 270 0.9 3.5 0.00 0.00 0.00 80 1006.8
20230127181515 23 248 1.7 7.0 0.00 0.00 0.00 79 1006.4
20230127180516 23 248 1.7 7.8 0.00 0.00 0.00 80 1006.2
20230127175616 23 270 0.9 4.3 0.00 0.00 0.00 80 1006.0
20230127174516 23 315 2.6 9.6 0.00 0.00 0.00 80 1006.0
20230127173515 23 0 0.9 6.1 0.00 0.00 0.00 82 1005.7
20230127172516 23 0.0 7.0 0.00 0.00 0.00 82 1005.4
20230127171515 23 315 0.9 9.6 0.00 0.00 0.00 83 1005.4
20230127170517 23 0.0 2.6 0.00 0.00 0.00 85 1005.2
20230127165516 23 338 1.7 15.6 0.00 0.00 0.00 86 1004.9
20230127164515 23 315 0.9 4.3 0.00 0.00 0.00 87 1004.6
20230127163515 23 293 0.9 3.5 0.00 0.00 0.00 87 1004.4
20230127162515 24 248 0.9 2.6 0.00 0.00 0.00 87 1004.3
20230127161517 24 0.0 1.7 0.00 0.00 0.00 88 1003.9
20230127160515 24 248 0.9 3.5 0.00 0.00 0.00 88 1003.7
20230127155517 24 248 0.9 2.6 0.00 0.00 0.00 88 1003.5
20230127154515 25 270 0.9 4.3 0.00 0.00 0.00 89 1003.3
20230127153515 25 270 0.9 8.7 0.00 0.00 0.00 89 1003.0
20230127152515 26 248 0.9 5.2 0.00 0.00 0.00 90 1002.7
20230127151518 26 248 0.9 5.2 0.00 0.00 0.00 90 1002.3
20230127150557 27 225 0.9 2.6 0.00 0.00 0.00 91 1002.1
20230127145537 26 270 1.7 15.6 0.00 0.00 0.00 91 1001.9
20230127144537 27 315 0.9 5.2 0.00 0.00 0.00 92 1001.6
20230127143515 27 0 1.7 16.5 0.00 0.00 0.00 92 1001.1
20230127142515 28 248 0.9 7.8 0.00 0.00 0.00 93 1000.6
20230127141517 30 0.0 2.6 0.00 0.00 0.00 93 1000.3
20230127140515 31 248 1.7 6.1 0.00 0.00 0.00 93 1000.0
20230127135515 32 248 0.9 3.5 0.00 0.00 0.00 94 999.8
20230127134515 33 248 1.7 7.0 0.00 0.00 0.00 94 999.5
20230127133515 34 225 0.9 3.5 0.00 0.00 0.00 94 999.2
20230127132515 34 225 0.9 5.2 0.00 0.00 0.00 94 998.9
20230127131555 36 248 1.7 6.1 0.00 0.00 0.00 94 998.6
20230127130515 36 248 0.9 9.6 0.00 0.00 0.00 95 998.3
20230127125517 36 248 0.9 6.1 0.00 0.00 0.00 95 998.1
20230127124515 36 248 1.7 7.8 0.00 0.00 0.00 95 997.9
20230127123515 36 248 1.7 6.1 0.00 0.00 0.00 95 997.7
20230127122515 35 248 0.9 5.2 0.00 0.00 0.00 95 997.6
20230127121515 35 0.0 6.1 0.00 0.00 0.00 95 997.5
20230127120515 35 0.0 3.5 0.00 0.00 0.00 95 997.4
20230127115516 34 0.0 0.0 0.00 0.00 0.00 95 997.4
20230127114515 34 248 0.9 3.5 0.00 0.00 0.00 94 997.3
20230127113515 34 248 0.9 3.5 0.00 0.00 0.00 94 997.3
20230127112515 33 248 0.9 4.3 0.00 0.00 0.00 94 997.4
20230127111515 32 248 0.9 6.1 0.00 0.00 0.00 94 997.5
20230127110515 32 158 0.9 2.6 0.00 0.00 0.00 94 997.4
20230127105515 31 158 1.7 5.2 0.00 0.00 0.00 94 997.6
20230127104515 31 248 0.9 2.6 0.00 0.00 0.00 93 997.6
20230127103515 30 248 0.9 3.5 0.00 0.00 0.00 93 997.7
20230127102516 30 225 0.9 5.2 0.00 0.00 0.00 93 997.8
20230127101518 30 203 0.9 4.3 0.00 0.00 0.00 93 997.9
20230127100517 29 225 0.9 5.2 0.00 0.00 0.00 93 998.1
20230127095517 29 225 0.9 4.3 0.00 0.00 0.00 93 998.1
20230127094518 28 248 0.9 5.2 0.00 0.00 0.00 93 998.3
20230127093517 28 180 1.7 5.2 0.00 0.00 0.00 93 998.5
20230127092517 28 203 0.9 2.6 0.00 0.00 0.00 93 998.7
20230127091516 27 203 0.9 6.1 0.00 0.00 0.00 93 998.8
20230127090518 27 158 0.9 4.3 0.00 0.00 0.00 93 999.0
20230127085517 27 225 1.7 6.1 0.00 0.00 0.00 93 999.3
20230127084558 27 225 1.7 6.1 0.00 0.00 0.00 92 999.4
20230127083518 26 180 0.9 5.2 0.00 0.00 0.00 92 999.6
20230127082516 26 180 1.7 5.2 0.00 0.00 0.00 92 999.9
20230127081517 26 225 0.9 3.5 0.00 0.00 0.00 92 1000.1
20230127080536 26 180 1.7 5.2 0.00 0.00 0.00 92 1000.3
20230127075517 25 180 0.9 4.3 0.00 0.00 0.00 92 1000.5
20230127074537 25 203 1.7 7.0 0.00 0.00 0.00 92 1000.6
20230127073537 24 180 0.9 2.6 0.00 0.00 0.00 92 1000.9
20230127072516 24 180 1.7 5.2 0.00 0.00 0.00 91 1001.0
20230127071517 24 180 1.7 5.2 0.00 0.00 0.00 91 1001.3
20230127070536 23 203 1.7 7.8 0.00 0.00 0.00 91 1001.4
20230127065516 23 180 1.7 5.2 0.00 0.00 0.00 91 1001.6
20230127064516 23 203 1.7 5.2 0.00 0.00 0.00 90 1001.9
20230127063516 23 158 1.7 9.6 0.00 0.00 0.00 90 1002.3
20230127062516 22 180 1.7 9.6 0.00 0.00 0.00 90 1002.5
20230127061516 22 203 0.9 4.3 0.00 0.00 0.00 89 1002.8
20230127060518 22 158 1.7 6.1 0.00 0.00 0.00 89 1003.1
20230127055515 22 180 1.7 6.1 0.00 0.00 0.00 88 1003.5
20230127054515 22 158 1.7 6.1 0.00 0.00 0.00 88 1003.5
20230127053515 22 158 1.7 4.3 0.00 0.00 0.00 88 1003.9
20230127052516 21 180 2.6 7.0 0.00 0.00 0.00 88 1004.2
20230127051515 21 158 1.7 6.1 0.00 0.00 0.00 88 1004.7
20230127050515 21 180 1.7 6.1 0.00 0.00 0.00 88 1005.2
20230127045535 20 158 1.7 4.3 0.00 0.00 0.00 88 1005.2
20230127044515 19 158 0.9 3.5 0.00 0.00 0.00 88 1005.5
20230127043515 18 158 0.9 2.6 0.00 0.00 0.00 88 1005.8
20230127042515 17 158 0.9 3.5 0.00 0.00 0.00 88 1006.0
20230127041515 16 135 0.9 3.5 0.00 0.00 0.00 88 1006.4
20230127040515 16 135 0.9 2.6 0.00 0.00 0.00 87 1006.7
20230127035515 15 135 0.9 2.6 0.00 0.00 0.00 87 1007.0
20230127034515 15 158 0.9 2.6 0.00 0.00 0.00 87 1007.4
20230127033517 14 158 0.9 2.6 0.00 0.00 0.00 87 1007.8
20230127032518 14 158 0.9 4.3 0.00 0.00 0.00 86 1008.1
20230127031517 14 0.0 1.7 0.00 0.00 0.00 86 1008.5
20230127030517 14 158 0.9 1.7 0.00 0.00 0.00 86 1008.6
20230127025517 14 158 0.9 5.2 0.00 0.00 0.00 86 1009.1
20230127024538 13 0.0 1.7 0.00 0.00 0.00 85 1009.3
20230127023517 13 248 0.9 1.7 0.00 0.00 0.00 85 1009.8
20230127022518 13 248 0.9 5.2 0.00 0.00 0.00 85 1010.4
20230127021517 13 248 0.9 2.6 0.00 0.00 0.00 85 1010.4
20230127020517 13 0.0 3.5 0.00 0.00 0.00 84 1010.5
20230127015517 13 158 0.9 1.7 0.00 0.00 0.00 84 1010.6
20230127014517 13 248 0.9 2.6 0.00 0.00 0.00 84 1011.3
20230127013518 13 135 0.9 4.3 0.00 0.00 0.00 84 1011.4
20230127012516 13 158 0.9 3.5 0.00 0.00 0.00 83 1012.1
20230127011516 13 0.0 4.3 0.00 0.00 0.00 83 1012.6
20230127010517 13 248 0.9 2.6 0.00 0.00 0.00 82 1012.9
20230127005517 13 0.0 1.7 0.00 0.00 0.00 82 1013.0
20230127004518 13 0.0 1.7 0.00 0.00 0.00 82 1013.0
20230127003518 13 0.0 1.7 0.00 0.00 0.00 81 1013.1
20230127002518 12 0.0 0.0 0.00 0.00 0.00 81 1013.0